"Pseudo-MPEC" for W08352

Created 2023 Nov 24 8:22:19 UT using Find_Orb

Click here for an explanation of pseudo-MPECs

 
 Astrometry: 
     W08352 * C2023 11 18H8S1y._HsFHDiAstrometryC$redacted;SQU-e+Oe\v7clickG@O18
     W08352   C2023 11 18FIXSKj-Axlir8lp[5u4@*B+5KJLGaMBavo!DBCn1o`#eBl`02DRqO18
     W08352   C2023 11 18ZXA`Y\3!DcV9do`wcKl#Ohere2yuL0.qYQforN!explanationk.O18

Station data:
(O18) WFST, Lenghu  (N38.607601 E93.895220).

Orbital elements:  W08352
   Perihelion 2024 Mar 28.69352 +/- 108 TT = 16:38:40 (JD 2460398.19352)
Epoch 2023 Nov 19.0 TT = JDT 2460267.5   Earth MOID: 0.2707   Ve: 0.0081
M 252.26831189 +/- 100              Ma: 0.0627                   AutoNEOCP
n   0.82430779 +/- 0.451            Peri.  323.97714 +/- 80
a   1.12653090 +/- 0.411            Node   230.62648 +/- 1.6
e   0.3895144 +/- 0.248             Incl.   30.79221 +/- 31
P   1.20/436.72d           H 21.94  G  0.15   U 12.2  SR
q 0.68773080 +/- 0.431    Q 1.56533101 +/- 19.7           (J2000 ecliptic)
From 3 observations 2023 Nov. 18 (15.7 min); mean residual 0".09
Residuals in arcseconds: 
231118 O18  .08+  .05+    231118 O18  .16-  .10-    231118 O18  .08+  .05+    

Ephemerides (geocentric):
Date (UTC) HH   RA             Dec           delta  r     elong  mag " sig PA
---- --------  ------------   ------------  ------ ------ -----  --- --------
2023 11 24 08  02 24 35.424   +06 44 54.22  .40306 1.3605 153.7 21.6  30d 101
2023 11 24 09  02 24 28.775   +06 42 02.67  .40309 1.3603 153.6 21.6  30d 101
2023 11 24 10  02 24 22.133   +06 39 11.18  .40312 1.3601 153.5 21.6  30d 101
2023 11 24 11  02 24 15.498   +06 36 19.75  .40315 1.3599 153.4 21.6  30d 101
2023 11 24 12  02 24 08.869   +06 33 28.39  .40318 1.3597 153.3 21.6  30d 100
2023 11 24 13  02 24 02.247   +06 30 37.08  .40321 1.3596 153.3 21.6  30d 100
2023 11 24 14  02 23 55.631   +06 27 45.84  .40324 1.3594 153.2 21.6  30d 100
2023 11 24 15  02 23 49.021   +06 24 54.67  .40327 1.3592 153.1 21.6  30d 100
2023 11 24 16  02 23 42.418   +06 22 03.55  .40330 1.3590 153.0 21.6  30d 100
2023 11 24 17  02 23 35.821   +06 19 12.50  .40334 1.3588 152.9 21.6  30d 100
2023 11 24 18  02 23 29.231   +06 16 21.52  .40337 1.3586 152.8 21.6  30d 100
2023 11 24 19  02 23 22.648   +06 13 30.60  .40340 1.3584 152.7 21.6  30d 100
2023 11 24 20  02 23 16.071   +06 10 39.75  .40344 1.3583 152.6 21.6  30d 100
2023 11 24 21  02 23 09.501   +06 07 48.96  .40347 1.3581 152.5 21.6  30d 100
2023 11 24 22  02 23 02.937   +06 04 58.25  .40351 1.3579 152.4 21.6  30d 100
2023 11 24 23  02 22 56.380   +06 02 07.60  .40355 1.3577 152.4 21.6  30d 100
2023 11 25 00  02 22 49.830   +05 59 17.02  .40358 1.3575 152.3 21.6  30d 100
2023 11 25 01  02 22 43.286   +05 56 26.51  .40362 1.3573 152.2 21.6  30d 100
2023 11 25 02  02 22 36.749   +05 53 36.07  .40366 1.3571 152.1 21.6  30d 100
2023 11 25 03  02 22 30.218   +05 50 45.70  .40370 1.3570 152.0 21.6  30d 100
2023 11 25 04  02 22 23.694   +05 47 55.41  .40374 1.3568 151.9 21.6  30d 100
2023 11 25 05  02 22 17.177   +05 45 05.18  .40378 1.3566 151.8 21.6  30d  99
2023 11 25 06  02 22 10.667   +05 42 15.03  .40382 1.3564 151.7 21.6  30d  99
2023 11 25 07  02 22 04.163   +05 39 24.96  .40386 1.3562 151.6 21.6  30d  99
2023 11 25 08  02 21 57.666   +05 36 34.95  .40390 1.3560 151.6 21.6  30d  99
2023 11 25 09  02 21 51.176   +05 33 45.02  .40394 1.3558 151.5 21.6  30d  99
2023 11 25 10  02 21 44.693   +05 30 55.17  .40399 1.3557 151.4 21.6  30d  99
2023 11 25 11  02 21 38.216   +05 28 05.40  .40403 1.3555 151.3 21.6  30d  99
2023 11 25 12  02 21 31.747   +05 25 15.70  .40407 1.3553 151.2 21.7  30d  99
2023 11 25 13  02 21 25.284   +05 22 26.07  .40412 1.3551 151.1 21.7  30d  99
2023 11 25 14  02 21 18.828   +05 19 36.53  .40416 1.3549 151.0 21.7  30d  99
2023 11 25 15  02 21 12.379   +05 16 47.07  .40421 1.3547 150.9 21.7  30d  99
2023 11 25 16  02 21 05.936   +05 13 57.68  .40425 1.3545 150.8 21.7  30d  99
2023 11 25 17  02 20 59.501   +05 11 08.37  .40430 1.3543 150.8 21.7  30d  99
2023 11 25 18  02 20 53.072   +05 08 19.15  .40435 1.3542 150.7 21.7  30d  99
2023 11 25 19  02 20 46.650   +05 05 30.00  .40440 1.3540 150.6 21.7  30d  99
2023 11 25 20  02 20 40.236   +05 02 40.94  .40444 1.3538 150.5 21.7  30d 100
2023 11 25 21  02 20 33.828   +04 59 51.96  .40449 1.3536 150.4 21.7  30d 100
2023 11 25 22  02 20 27.427   +04 57 03.06  .40454 1.3534 150.3 21.7  30d 100
2023 11 25 23  02 20 21.033   +04 54 14.25  .40459 1.3532 150.2 21.7  30d 100
2023 11 26 00  02 20 14.646   +04 51 25.52  .40464 1.3530 150.1 21.7  30d 100
2023 11 26 01  02 20 08.266   +04 48 36.87  .40469 1.3528 150.0 21.7  30d 100
2023 11 26 02  02 20 01.893   +04 45 48.31  .40475 1.3527 150.0 21.7  30d 100
2023 11 26 03  02 19 55.527   +04 42 59.84  .40480 1.3525 149.9 21.7  30d 100
2023 11 26 04  02 19 49.169   +04 40 11.45  .40485 1.3523 149.8 21.7  30d 100
2023 11 26 05  02 19 42.817   +04 37 23.15  .40490 1.3521 149.7 21.7  30d 100
2023 11 26 06  02 19 36.472   +04 34 34.93  .40496 1.3519 149.6 21.7  30d 100
2023 11 26 07  02 19 30.134   +04 31 46.81  .40501 1.3517 149.5 21.7  30d 100